Theta_e
303 303 303 302 302 302 302 303 303 303 303 302 302 302 302 302 301 301 301 301 301 301 301 301 301 301 301 301 301 301 301 301 301 302 301 301 301 301 301 301 301 301 301 301 301 301 300 300 300 300 300 300 300 300 300 300 301 300 300 300 300 300 300 300 300 300 300 301 300
303 303 303 302 302 302 302 302 302 302 302 302 302 302 302 301 301 301 301 301 301 301 301 301 301 301 301 301 301 301 301 301 301 301 301 301 301 301 301 301 301 301 301 301 300 300 300 300 300 299 299 299 299 299 300 300 300 300 300 300 300 300 300 300 300 300 300 300 301
303 303 302 302 302 302 301 301 301 302 302 302 302 302 302 301 301 301 301 301 302 302 301 301 301 301 301 301 301 301 301 301 301 300 300 300 300 301 301 300 300 300 300 300 300 300 300 299 299 299 299 298 299 299 299 300 300 300 299 299 300 300 300 300 300 300 300 300 300
303 302 302 302 301 302 301 301 301 301 301 302 302 302 302 301 301 301 301 302 302 301 301 301 301 301 301 301 301 301 301 301 301 300 300 300 300 300 300 300 300 300 300 300 300 300 300 299 299 298 298 298 298 298 298 299 299 299 299 299 299 299 299 299 300 300 300 300 300
303 302 302 302 301 301 301 301 301 301 301 301 301 301 301 301 301 301 301 301 301 301 301 301 301 301 301 301 301 301 301 301 301 300 300 300 300 300 300 300 299 299 299 299 299 299 299 299 298 298 298 298 298 298 298 299 299 299 299 299 299 299 299 299 299 300 300 300 300
302 302 302 302 301 301 301 301 301 301 301 301 300 300 300 301 301 301 301 300 301 301 301 301 301 301 301 301 300 300 300 300 300 300 300 300 299 299 299 299 299 299 299 299 299 299 299 299 298 298 298 298 298 299 299 299 299 298 299 299 299 299 299 299 300 300 300 300 300
302 302 301 301 301 301 301 301 301 301 301 300 300 300 300 300 301 301 301 301 301 301 301 301 301 300 300 300 300 300 299 299 299 299 299 299 299 299 299 299 299 299 299 299 299 299 299 299 298 298 298 298 298 298 299 299 299 298 298 298 299 299 299 300 300 300 300 299 299
302 301 301 301 301 301 301 301 301 301 300 300 300 300 300 301 301 301 300 300 300 300 300 300 300 300 300 300 299 299 299 299 299 299 299 298 298 298 298 298 298 298 298 299 298 299 299 298 298 298 298 298 298 298 299 299 299 299 298 298 298 299 299 300 300 300 300 299 299
302 302 302 301 301 301 301 301 301 300 300 300 300 300 301 301 301 301 300 300 300 300 300 300 300 300 300 300 299 299 298 298 298 298 298 298 298 298 298 298 298 298 298 299 299 299 299 298 298 298 298 298 298 298 299 299 299 298 298 298 299 299 299 300 300 300 299 299 299
301 302 302 301 301 301 301 301 301 300 300 300 300 301 301 301 301 301 300 300 300 300 300 300 300 300 299 299 299 298 298 298 298 297 297 297 297 297 297 297 298 298 298 298 299 299 299 298 298 298 298 299 298 299 299 299 298 298 298 298 298 299 299 299 299 299 299 299 298
301 301 301 301 301 301 301 301 300 300 300 300 301 301 301 301 301 301 300 300 300 300 299 299 299 299 298 298 298 298 298 298 297 297 297 297 297 297 297 297 297 298 298 298 298 298 298 298 298 298 298 298 299 299 298 298 298 298 298 298 298 298 298 298 299 299 299 299 298
301 301 301 301 301 301 301 300 300 300 300 300 301 301 301 301 301 300 300 300 299 299 299 299 299 298 298 297 298 298 297 297 297 297 297 297 297 297 297 297 298 298 298 298 298 298 298 298 298 298 298 298 298 298 298 298 298 298 297 297 297 297 297 298 298 298 298 299 298
300 301 301 301 301 300 300 300 300 300 300 300 301 301 300 300 300 300 300 299 299 298 298 298 298 298 298 297 297 297 297 297 297 297 297 297 297 297 297 297 298 298 298 298 298 298 298 298 298 298 298 298 298 298 298 298 297 297 297 297 297 297 297 297 298 298 298 298 298
300 300 300 300 300 300 300 300 300 300 300 300 300 300 300 300 300 300 299 299 298 298 298 298 298 298 297 297 297 297 297 297 297 297 297 297 297 297 297 298 298 298 298 298 298 298 298 298 298 297 297 297 297 298 298 298 297 297 297 296 296 296 297 297 298 298 298 298 298
300 300 300 300 300 300 300 300 300 300 300 300 300 300 300 299 299 299 299 298 298 298 297 297 297 297 297 297 297 297 297 297 297 297 297 297 297 297 297 297 298 298 298 298 298 298 298 297 297 297 297 297 297 297 297 297 297 297 297 297 296 296 297 297 297 297 298 297 298
300 300 300 300 300 300 299 299 299 299 299 299 300 299 299 299 299 299 298 298 297 297 297 297 297 297 297 297 297 297 297 297 297 297 297 297 297 297 297 297 297 297 297 297 297 297 297 298 297 297 297 297 297 297 297 297 297 297 297 297 297 297 297 297 298 298 298 298 298
300 300 300 300 299 299 299 299 299 299 299 299 299 299 299 298 298 298 298 297 297 297 296 296 297 296 297 297 297 297 297 297 297 297 297 297 297 297 297 297 297 297 297 297 297 297 297 297 298 298 297 297 297 297 297 298 298 298 298 298 298 298 298 298 298 299 299 299 299
300 299 300 299 299 299 299 299 299 299 299 299 298 298 298 298 297 297 297 297 297 296 296 296 296 297 296 297 297 297 297 297 297 297 297 297 297 297 297 297 297 297 296 296 297 297 297 297 297 297 297 297 297 297 297 297 298 298 298 298 298 298 299 299 299 299 299 299 299
299 299 299 299 299 299 299 299 299 298 298 298 298 298 298 297 297 297 297 297 297 296 296 296 296 296 296 297 297 297 297 297 297 297 297 297 297 297 297 297 297 297 297 296 297 297 297 297 297 297 297 297 297 297 297 297 297 298 298 298 299 299 299 299 299 299 299 299 300
299 299 299 299 299 299 298 298 298 298 298 298 297 297 297 297 297 296 296 296 296 296 296 296 296 296 296 297 297 297 297 297 297 297 297 297 297 297 296 296 296 296 296 296 296 296 296 296 296 296 296 297 297 297 297 297 298 298 298 299 299 299 299 299 300 300 300 300 300
299 299 299 299 299 299 298 298 298 298 298 297 297 297 297 297 296 296 296 296 296 296 296 296 296 296 296 297 297 297 297 297 297 297 297 297 296 296 296 296 296 296 296 296 296 296 296 296 296 297 297 297 297 297 297 297 298 298 299 299 299 299 300 300 300 300 300 300 300
299 299 299 299 299 298 298 298 298 297 297 297 297 297 297 296 296 296 296 297 297 296 296 296 296 296 297 297 297 297 297 297 297 297 297 296 296 296 296 296 296 296 296 296 296 296 296 296 297 297 297 297 297 297 298 298 298 298 299 299 300 300 300 300 300 300 300 300 300
299 299 299 299 299 298 298 298 297 297 297 297 297 296 296 296 296 296 296 296 296 296 296 297 297 297 297 297 297 297 297 297 297 297 297 296 296 296 296 296 296 296 296 296 296 296 297 297 297 297 297 297 298 298 298 298 298 298 299 300 300 300 300 300 301 300 301 301 301
299 299 299 299 298 298 298 298 297 297 296 296 296 296 296 296 296 296 296 296 296 296 296 296 297 297 297 297 297 297 297 297 297 296 296 296 296 295 296 295 295 296 296 296 297 297 297 297 297 298 298 298 299 299 299 300 300 300 300 300 300 301 301 301 302 302 301 301 301
299 298 298 298 298 298 297 297 297 296 296 296 296 296 296 296 296 296 296 296 296 296 296 296 297 297 297 297 297 297 297 297 296 296 295 295 295 295 295 295 296 296 296 297 299 300 300 300 299 299 299 300 300 300 301 301 301 301 301 301 301 302 302 302 303 303 303 303 302
298 298 298 298 297 297 297 296 296 296 296 296 296 296 295 295 296 295 295 295 296 296 296 296 297 297 297 297 296 297 297 296 296 295 295 295 295 295 295 295 296 296 296 298 300 301 301 302 302 301 300 300 300 301 301 301 302 302 302 302 302 302 302 302 303 303 304 304 304
298 298 298 297 297 297 296 296 296 296 296 296 296 295 295 295 295 295 295 295 296 296 296 296 296 296 296 296 296 296 296 295 295 295 295 294 295 295 295 295 295 296 297 299 300 301 302 303 303 303 303 301 301 301 302 302 302 302 303 303 303 303 302 302 302 303 303 304 304
298 297 297 297 296 296 296 296 296 296 295 295 295 295 295 295 295 295 295 295 295 296 296 296 296 296 296 296 296 295 295 295 294 295 295 295 295 295 295 295 295 296 298 300 301 302 303 304 304 305 304 303 302 302 302 302 302 303 303 303 303 303 303 303 303 303 303 303 304
297 297 297 296 296 296 296 296 295 295 295 295 295 295 295 295 295 295 295 295 295 295 295 295 296 296 296 295 295 295 295 294 294 294 294 294 295 295 295 295 296 297 299 301 301 302 303 304 305 305 305 305 303 302 302 302 302 302 302 303 303 303 303 303 303 303 303 303 304
297 297 296 296 295 295 295 295 295 295 295 295 295 295 295 295 295 295 295 295 295 295 295 295 295 295 295 294 294 294 294 294 294 294 294 294 294 294 295 296 296 297 298 301 302 302 303 304 305 305 306 306 305 303 303 303 303 303 303 303 303 303 303 303 303 303 303 303 304
297 296 296 295 295 295 295 295 295 295 295 295 295 294 294 294 294 294 294 295 295 295 295 295 295 294 294 294 294 293 293 294 294 294 294 294 294 295 295 296 296 297 299 301 302 303 303 304 305 305 306 306 305 304 303 304 304 303 304 304 304 304 304 303 303 303 303 303 303
296 296 296 295 295 295 295 295 295 295 295 294 294 294 294 294 294 294 295 295 295 295 295 295 294 294 293 294 293 293 294 294 294 294 294 295 295 295 295 296 296 298 299 301 302 303 304 304 305 305 306 306 305 304 304 304 304 304 304 304 304 304 304 304 304 303 303 302 302
296 296 295 295 295 295 295 295 295 294 294 294 294 294 294 294 294 295 295 295 295 295 294 294 293 293 293 293 293 293 294 294 294 295 295 296 296 296 296 297 297 298 300 302 303 303 304 304 305 305 306 306 305 304 304 304 304 304 304 304 304 304 304 303 303 303 303 303 303
296 295 295 295 295 295 295 295 294 294 294 294 294 294 294 294 294 294 294 294 294 294 294 293 293 293 293 293 293 293 293 294 294 295 295 296 296 296 297 297 297 299 300 302 303 303 304 304 305 305 305 306 304 304 304 303 303 303 303 303 303 303 303 303 303 303 304 303 304
295 295 295 295 294 294 294 294 294 294 294 294 294 294 294 294 294 294 294 294 294 294 293 293 293 293 293 294 294 294 294 294 294 295 295 296 296 296 297 297 298 299 301 302 303 303 304 304 304 305 305 305 304 303 303 303 303 302 302 302 302 302 303 303 303 304 304 304 304
295 295 294 294 294 294 294 294 294 294 293 293 293 293 294 294 293 294 294 294 293 293 293 293 293 293 293 293 294 294 294 294 294 295 295 296 296 296 296 297 298 299 301 302 302 303 304 304 304 305 305 304 303 303 303 302 302 302 301 301 301 301 302 303 303 303 304 304 305
295 295 294 294 294 294 294 294 294 293 293 293 293 293 293 293 293 293 293 293 293 293 293 293 293 293 293 293 293 294 295 295 295 295 296 296 296 296 296 297 297 299 300 302 302 303 304 304 304 305 304 303 302 302 302 301 301 301 300 300 300 301 302 303 303 304 304 304 304
295 295 294 294 294 294 294 294 293 293 293 293 293 293 293 293 293 293 293 293 293 292 292 293 293 293 293 293 294 295 296 296 295 295 296 296 296 296 296 296 297 298 300 301 302 303 303 304 304 305 304 303 302 302 301 300 300 300 300 300 300 301 302 303 303 303 303 304 304
295 295 294 294 294 294 293 293 293 293 293 293 293 293 292 292 292 292 293 293 293 292 292 293 293 293 294 295 295 295 296 296 296 296 296 296 296 297 297 297 297 299 300 301 302 303 303 304 304 305 304 303 302 301 300 300 299 299 299 299 300 301 301 302 302 302 302 302 303
295 295 294 294 294 294 294 293 293 293 293 293 293 292 292 292 292 293 293 293 293 293 293 293 293 294 295 295 295 295 295 296 296 296 296 296 297 298 299 298 298 299 300 301 302 303 303 303 304 304 304 303 302 301 300 300 299 299 299 299 300 300 301 301 301 301 300 301 302
295 295 294 294 294 294 294 293 293 293 293 293 292 292 292 292 292 293 293 293 293 293 293 293 293 294 295 296 295 295 295 295 296 296 297 297 298 298 299 298 298 299 300 301 302 302 303 303 303 304 304 302 302 301 300 299 299 299 299 299 300 300 300 300 300 300 300 300 301
Wind_Speed
4 4 3 3 3 3 3 3 3 4 4 4 5 5 6 6 6 6 6 6 6 7 7 7 7 8 9 11 12 13 13 14 14 14 15 15 15 15 15 15 15 14 14 15 14 13 13 13 12 10 9 9 10 10 10 9 11 11 12 12 11 12 13 14 14 14 15 16 13
4 4 4 3 4 3 3 3 3 4 4 4 5 5 6 6 6 6 7 7 7 7 7 7 8 9 11 12 13 13 13 14 15 15 15 15 15 15 15 15 15 15 15 15 14 13 12 12 11 10 9 9 10 10 10 10 10 12 13 14 12 11 11 12 13 14 14 15 13
4 3 3 4 4 3 3 3 4 4 5 5 5 5 6 6 6 6 7 7 8 8 8 7 8 10 11 13 12 12 13 14 15 15 15 14 15 15 15 15 15 15 15 15 14 13 12 12 11 10 9 9 10 10 11 11 11 12 13 14 11 10 9 10 11 11 11 10 12
4 4 4 4 4 4 4 4 5 6 6 5 6 6 6 6 6 6 7 8 9 9 8 8 8 9 11 12 13 13 14 14 15 15 15 15 15 16 16 16 16 16 15 15 14 14 14 13 11 10 10 11 12 12 11 10 11 11 11 11 10 10 10 9 9 9 9 9 11
4 3 3 3 4 5 5 5 6 6 6 5 6 6 6 6 6 7 7 8 8 8 9 10 10 10 10 12 14 15 15 15 15 15 14 15 15 16 16 16 16 15 15 14 15 15 14 14 11 10 10 11 11 10 11 12 12 12 10 9 9 9 9 9 9 9 9 9 9
3 3 3 3 4 5 5 5 6 7 6 6 7 7 8 7 7 8 8 9 9 10 11 11 11 11 11 13 14 14 14 14 14 14 14 15 15 15 16 16 16 15 15 14 15 15 15 14 11 10 10 10 10 11 12 13 13 12 11 10 9 9 9 10 9 9 9 10 11
3 4 4 4 5 5 5 6 6 7 7 7 8 10 10 9 10 10 11 10 10 10 10 10 10 11 12 13 13 14 14 14 14 15 15 15 15 15 16 16 16 16 15 15 15 15 14 13 11 10 10 10 9 11 12 13 12 12 11 11 9 9 9 10 9 9 10 12 14
4 4 4 5 5 6 6 7 7 7 7 7 9 10 12 12 12 12 12 11 10 10 9 9 11 12 13 13 14 14 14 15 15 15 15 15 16 16 16 16 16 16 16 15 15 15 14 12 10 10 10 9 9 10 11 13 13 13 13 12 11 10 9 9 9 10 11 13 15
4 4 4 5 5 6 6 7 7 8 8 9 10 11 12 12 12 12 12 10 10 10 10 10 12 13 14 14 15 15 14 14 15 15 15 15 16 16 16 16 16 16 16 15 15 15 15 12 10 10 10 9 9 10 12 14 15 15 14 13 12 11 11 11 11 12 13 14 15
4 5 5 5 6 6 7 7 8 9 10 11 11 12 12 12 12 11 11 9 10 11 11 11 13 14 14 15 15 15 14 14 14 15 15 15 16 16 16 15 15 16 15 14 14 14 14 12 11 11 11 11 12 13 14 15 15 16 15 12 12 13 14 13 14 14 14 14 15
5 5 5 5 6 6 7 8 8 9 9 10 11 12 12 12 12 11 11 10 11 12 13 13 14 14 15 14 14 14 14 14 14 14 15 16 16 16 16 16 16 16 16 15 14 13 12 11 12 13 14 13 14 14 15 15 16 16 15 13 14 15 16 16 15 15 14 14 15
5 5 6 6 6 7 7 8 8 8 9 10 11 11 11 11 11 12 12 12 13 13 14 13 14 15 15 13 14 14 14 15 15 15 16 16 17 17 17 17 16 16 16 16 14 12 11 12 13 14 15 15 13 13 13 15 15 16 16 16 16 16 16 16 16 14 13 14 15
6 6 6 6 6 7 7 8 8 8 9 10 11 11 11 11 12 12 13 13 14 13 13 13 14 14 14 14 14 14 14 15 15 16 16 16 16 16 16 16 16 16 16 15 13 12 12 13 14 15 16 16 14 13 14 15 15 16 16 16 16 16 16 17 16 15 15 15 15
6 6 6 6 7 7 7 8 8 8 9 11 11 10 10 11 12 12 12 13 13 13 13 13 13 13 13 14 14 15 15 15 16 16 16 16 16 16 16 16 16 15 15 13 13 14 14 14 15 16 16 16 16 16 15 16 16 16 16 16 17 17 17 17 17 16 16 16 16
7 7 7 7 7 7 7 8 8 8 9 11 10 10 10 11 11 11 12 13 13 13 13 13 12 13 13 15 15 16 16 15 16 16 16 16 16 16 16 16 16 15 15 14 14 14 15 16 16 16 16 17 17 17 16 16 16 16 16 16 17 17 17 17 17 17 16 17 17
7 7 7 7 7 8 8 8 7 8 9 10 11 11 11 11 11 11 12 13 13 12 12 13 13 13 13 14 15 15 15 15 15 16 16 16 16 16 16 16 16 15 15 15 15 15 15 15 15 16 16 17 17 17 16 16 16 17 17 17 17 17 17 18 17 17 17 17 17
8 8 7 8 8 8 9 8 8 9 9 11 12 12 11 11 11 11 12 13 12 13 13 14 14 13 13 13 13 14 14 14 14 15 15 15 16 16 16 16 16 16 16 16 16 16 16 16 15 16 16 17 17 17 17 17 17 17 17 18 18 18 18 18 17 17 17 17 18
8 8 8 8 9 9 9 10 10 10 11 12 12 12 12 12 12 12 13 13 13 14 15 15 14 14 14 14 14 13 13 13 14 15 15 15 16 16 16 16 16 16 16 16 16 16 17 17 16 16 16 16 16 16 16 17 16 17 17 17 17 18 18 18 18 17 17 17 18
9 8 8 8 9 9 10 11 11 12 12 12 12 12 13 13 14 14 14 14 14 15 15 15 15 14 14 15 15 14 13 14 15 16 16 16 16 16 16 16 16 16 16 16 16 16 17 17 17 16 16 16 16 16 16 17 16 17 17 17 18 18 18 18 18 18 17 18 18
9 9 9 9 9 10 10 11 12 12 12 12 13 14 14 14 14 15 15 15 14 14 15 15 15 15 15 15 15 15 14 13 14 15 16 16 16 16 16 16 16 16 16 16 16 16 17 17 17 17 17 17 17 17 17 17 17 17 17 17 17 18 18 18 18 18 19 19 19
9 9 9 9 9 10 11 11 12 12 13 13 14 14 15 15 15 15 15 15 15 15 15 15 15 16 16 16 16 15 15 13 14 15 15 15 16 16 16 16 16 16 16 16 16 16 17 17 17 17 17 17 17 17 17 17 17 17 17 17 17 18 18 18 19 19 19 19 19
8 8 9 9 10 10 11 12 12 13 13 14 14 15 15 15 15 15 15 15 15 15 15 15 15 16 16 15 16 15 15 13 14 14 14 14 15 15 15 15 16 16 16 16 16 16 17 17 17 17 17 16 16 17 17 17 17 17 17 18 18 19 19 19 19 19 19 20 20
8 8 9 9 10 11 11 12 13 13 13 14 14 15 15 15 15 15 15 14 14 14 15 14 14 15 15 15 16 16 15 15 15 14 14 14 15 15 15 15 16 16 16 15 15 15 15 15 16 16 16 15 16 17 17 17 17 17 17 18 18 19 19 19 19 19 19 19 19
9 9 9 8 10 11 12 12 13 13 14 14 14 15 15 15 15 15 15 15 15 15 15 13 13 14 15 16 16 16 16 16 15 15 15 15 15 15 16 15 15 15 14 13 13 14 14 13 13 13 14 14 14 15 15 16 16 16 17 17 18 18 18 19 19 19 18 19 18
9 9 10 10 11 12 12 13 13 14 14 14 14 14 15 15 15 15 15 15 15 15 15 15 15 14 14 14 15 15 15 15 15 15 15 15 16 16 15 14 14 13 12 12 16 19 20 18 16 13 12 12 13 14 15 16 16 17 17 17 17 17 17 18 18 18 18 18 18
9 10 11 11 11 12 13 13 14 14 14 14 14 14 14 15 14 15 15 15 15 15 15 15 15 14 14 13 14 14 14 13 14 14 15 15 16 16 15 14 12 11 12 14 18 21 23 24 23 20 16 13 13 13 14 14 15 16 16 17 16 16 16 16 16 17 17 17 17
10 10 11 11 12 13 13 13 13 14 14 14 14 15 15 14 14 14 15 15 16 15 15 14 14 14 13 13 14 14 14 13 13 14 15 16 16 16 16 14 13 12 12 16 21 23 25 26 26 25 22 17 14 13 13 12 14 15 15 15 15 15 16 17 17 17 17 16 15
10 11 11 12 13 13 13 13 14 14 14 14 14 14 14 15 15 15 15 15 15 15 14 12 12 11 11 10 12 13 14 14 14 14 14 15 16 16 16 14 13 13 15 20 23 25 26 26 27 27 25 21 16 14 13 13 13 12 12 13 13 14 15 16 15 15 15 15 14
11 11 12 12 13 13 14 14 14 14 14 14 15 15 15 15 15 15 15 15 15 14 13 11 10 10 10 11 12 14 15 15 14 14 14 15 16 16 16 16 15 16 19 23 25 26 26 27 27 27 27 25 17 13 10 10 10 10 10 10 10 11 12 12 12 12 12 12 13
11 11 12 13 13 14 14 14 14 14 14 14 14 15 15 15 15 15 15 15 15 14 13 11 11 12 12 13 13 14 14 14 14 14 15 16 17 17 17 17 16 17 19 23 25 26 26 27 27 27 27 27 21 16 11 10 10 10 10 10 10 12 13 13 13 13 12 11 13
11 12 12 13 13 14 14 14 14 14 14 14 15 15 15 15 15 15 15 15 14 14 14 14 14 14 15 14 14 14 14 14 14 15 15 16 17 17 17 18 18 18 20 23 25 26 26 26 27 27 27 27 22 16 11 11 11 11 11 11 12 13 13 13 14 14 15 15 14
11 12 12 13 14 14 14 14 14 15 15 15 15 15 15 15 15 15 14 14 14 15 15 15 15 15 15 15 15 15 15 15 15 15 16 16 17 18 18 18 18 18 20 23 24 25 26 26 26 27 27 27 22 17 13 13 12 12 12 13 14 15 14 13 14 15 16 16 14
11 12 12 13 14 14 14 14 15 15 15 15 15 15 15 15 14 14 14 14 14 14 14 15 15 15 15 15 15 16 16 16 16 17 17 18 18 18 18 18 16 17 20 23 24 25 26 26 26 27 27 27 21 17 14 13 12 11 12 13 14 15 16 17 16 16 16 16 14
12 12 13 13 14 14 14 14 14 15 15 15 14 14 14 14 15 15 14 14 13 13 13 14 14 14 14 15 15 15 15 15 16 17 17 18 18 19 18 17 14 16 19 23 25 26 26 26 26 27 27 26 19 15 13 13 12 11 12 13 15 15 16 16 17 17 17 16 14
12 12 13 13 14 14 14 15 15 15 15 15 14 14 14 14 15 15 14 14 14 14 14 14 14 14 14 14 15 15 16 16 17 17 18 18 18 18 19 18 17 18 21 24 25 25 26 26 26 27 26 23 16 12 11 12 12 12 13 15 16 16 17 17 16 15 15 15 15
12 13 13 14 14 14 15 15 15 15 15 15 15 15 14 14 14 14 14 14 14 14 14 14 14 14 14 15 15 15 16 17 17 18 18 18 18 18 19 19 18 20 22 24 25 25 25 25 26 26 25 19 13 10 10 11 11 12 14 15 16 17 17 16 15 14 14 13 14
12 13 13 14 14 14 15 15 15 15 15 15 15 14 14 15 14 14 14 14 14 14 14 14 15 15 15 15 15 16 16 17 18 18 18 18 18 18 18 18 18 19 21 23 24 24 25 25 26 26 23 16 12 11 11 11 11 12 13 14 15 16 16 14 14 14 14 14 14
12 13 13 14 14 14 14 14 14 15 15 15 14 14 14 14 13 13 13 13 13 14 14 15 15 15 15 16 16 17 18 18 18 18 18 18 17 18 18 18 18 19 19 21 23 24 24 25 26 25 22 16 13 12 11 11 11 12 12 13 13 14 14 12 11 12 13 14 16
12 13 13 14 14 14 14 14 14 15 15 15 14 14 14 14 13 13 13 13 13 13 14 15 15 16 16 17 17 17 18 19 18 18 18 17 17 18 19 18 18 18 19 21 22 23 24 24 25 25 23 18 14 12 11 11 12 13 13 12 12 13 13 12 11 11 12 15 18
12 13 13 13 14 14 14 14 14 14 14 14 14 14 14 14 13 13 13 13 13 13 14 14 16 16 17 17 17 17 18 18 18 18 17 17 18 19 20 19 18 18 19 20 21 22 23 23 24 25 23 17 14 12 11 11 12 12 13 12 12 12 12 12 11 11 11 13 16
12 12 13 13 13 13 14 14 14 14 14 13 14 13 13 13 13 13 13 12 13 13 13 13 15 17 17 17 16 16 17 18 18 18 18 18 18 18 18 18 18 17 17 18 19 20 22 23 24 24 22 17 14 12 11 10 11 12 13 13 12 11 11 11 11 11 11 12 13
Wind_Direction
211 218 228 240 252 262 272 285 292 295 296 296 296 297 297 296 295 294 294 295 299 303 305 304 303 301 300 298 297 296 294 293 292 290 289 288 287 287 287 286 286 285 284 283 283 283 282 280 279 277 274 272 272 270 269 267 267 267 266 265 265 265 264 263 262 260 259 258 257
220 227 237 247 255 262 270 279 284 287 287 286 287 289 290 289 289 289 290 292 297 301 303 302 301 300 299 298 297 295 294 293 293 291 290 289 288 288 287 286 285 284 284 284 283 283 281 281 280 278 276 274 272 271 269 267 266 266 265 264 264 263 263 262 261 260 260 259 257
233 241 248 253 261 269 277 280 285 288 289 288 287 286 286 284 283 285 287 290 296 299 301 300 301 300 299 298 297 295 294 293 293 292 291 290 290 289 288 287 286 285 285 284 283 282 281 281 280 278 275 273 272 271 270 269 267 267 267 266 265 263 262 262 261 261 260 258 256
238 249 259 265 276 283 289 292 294 296 296 295 291 287 283 281 280 281 285 290 295 298 300 302 301 301 299 298 296 294 293 292 292 292 292 291 291 290 289 288 287 286 285 284 283 282 281 280 278 276 273 272 272 271 270 270 269 268 268 267 266 264 263 262 262 261 260 259 257
239 250 264 279 290 295 296 294 295 295 295 294 290 287 283 281 280 282 287 294 298 302 303 304 301 299 297 295 295 294 294 294 294 293 292 292 291 290 289 288 286 286 285 284 283 282 281 280 277 274 272 272 271 270 269 270 270 269 268 266 265 263 262 262 261 260 260 259 257
259 269 279 289 293 293 291 290 291 292 292 290 287 286 286 286 288 292 296 299 301 302 302 301 299 297 296 296 296 296 296 296 294 293 292 290 289 288 287 287 286 286 285 284 283 281 280 279 276 272 270 270 269 268 268 269 268 268 266 264 262 261 261 260 260 259 259 258 257
278 284 289 292 291 290 290 292 292 293 291 288 286 287 289 292 295 297 298 299 299 301 302 301 300 300 300 300 299 298 297 295 293 291 290 289 288 287 287 288 287 286 285 284 283 282 280 277 275 272 270 269 268 267 266 266 266 266 265 265 264 262 262 262 261 261 260 260 259
274 280 284 288 287 288 289 291 292 292 290 287 287 289 291 294 295 296 297 298 298 301 302 302 302 301 300 299 297 296 294 293 292 291 290 289 289 289 289 289 288 287 286 285 284 282 281 278 275 273 271 270 268 267 267 266 266 265 265 265 265 263 262 262 261 260 260 260 260
272 277 280 282 283 286 289 291 291 290 288 286 286 288 290 292 294 296 297 298 300 302 302 301 300 299 298 296 294 293 293 292 292 292 291 291 291 290 290 289 288 287 287 285 284 283 281 278 274 271 270 269 269 269 269 268 268 267 266 266 265 264 262 261 260 259 259 259 259
280 284 286 285 288 290 293 294 292 289 286 285 285 287 289 293 296 298 300 301 302 301 300 298 298 297 296 296 294 294 294 293 293 293 293 292 291 291 291 290 289 288 287 286 284 283 281 277 273 271 270 269 270 270 270 270 269 268 267 266 266 265 265 263 262 261 260 259 258
280 285 287 290 294 296 297 296 292 289 286 285 287 290 294 298 301 302 303 303 301 299 299 298 299 298 297 297 296 296 295 295 294 294 293 293 292 291 291 290 288 287 286 285 284 282 279 276 274 272 271 270 270 271 271 270 269 268 267 266 266 266 266 264 263 262 262 261 260
280 284 287 289 293 295 295 293 290 287 286 287 291 296 300 303 305 306 305 303 301 300 300 301 300 300 299 297 297 296 296 295 294 294 293 293 292 291 290 288 287 286 285 284 283 280 277 274 273 273 272 271 270 270 270 270 270 269 269 268 267 267 266 265 264 263 262 261 261
283 285 286 288 291 292 291 288 286 286 287 291 297 301 304 306 307 307 306 304 303 303 303 303 301 300 298 297 297 297 296 296 295 294 293 292 291 290 289 287 286 285 284 283 282 279 277 275 274 274 274 273 272 271 271 272 272 271 271 271 270 269 268 267 266 265 264 263 262
282 283 285 288 291 291 289 287 286 288 292 297 302 305 307 307 308 308 307 306 305 305 303 302 301 299 298 298 298 298 297 296 295 293 292 290 289 289 288 287 286 285 285 284 282 280 278 277 276 276 275 275 274 273 273 273 273 272 272 272 272 271 270 269 268 267 265 264 263
282 283 286 289 290 289 288 287 288 292 297 302 306 308 309 308 308 309 308 307 305 303 302 301 300 299 299 299 298 298 296 295 293 292 290 289 288 288 287 287 287 287 286 285 283 281 280 278 277 277 276 276 276 275 275 274 274 273 272 272 271 271 271 270 269 268 266 264 263
284 286 289 291 290 289 289 289 291 296 302 306 309 309 309 308 308 308 307 306 304 302 301 300 300 300 299 298 297 296 295 293 291 290 289 289 289 289 289 288 288 288 287 286 285 283 281 279 278 278 277 277 277 277 276 275 274 273 272 271 271 271 270 270 269 268 267 266 265
287 290 292 293 292 292 292 294 297 301 305 307 308 309 308 308 308 307 306 305 303 302 301 300 300 299 298 297 295 294 292 291 290 289 289 289 290 290 290 290 290 289 288 287 285 283 282 280 279 279 278 278 277 277 276 274 273 272 271 270 270 269 269 268 268 267 267 266 265
291 293 295 294 294 295 296 298 301 304 306 307 307 308 308 307 307 306 304 303 302 301 300 300 298 297 295 294 293 292 291 290 290 290 290 290 291 291 291 291 290 289 288 286 284 283 283 282 281 280 279 278 277 275 274 273 272 271 270 268 267 266 265 265 264 263 263 262 261
293 295 296 297 298 299 301 302 304 306 306 307 307 307 307 306 305 304 303 302 301 300 300 299 297 295 293 292 292 291 290 289 290 290 290 291 291 291 291 290 289 288 287 286 285 285 284 284 283 282 280 278 277 275 274 273 272 270 268 267 265 264 262 261 260 259 258 257 257
294 296 299 301 302 302 303 304 306 307 307 307 307 306 306 305 304 303 302 302 301 300 298 296 295 293 292 291 291 290 290 289 289 290 291 291 291 291 290 289 289 288 287 287 286 285 285 284 283 282 280 279 278 276 275 274 273 271 269 268 266 264 263 261 260 258 257 256 255
295 298 302 303 304 304 304 305 306 307 306 306 306 305 305 304 303 303 302 301 300 298 296 294 292 291 291 291 290 290 289 288 289 290 291 291 290 290 290 290 290 289 288 287 286 285 284 283 282 282 280 279 278 277 276 275 273 272 271 270 268 266 264 262 260 258 257 255 254
298 302 304 305 304 304 304 305 306 306 305 305 304 304 304 304 303 302 301 300 298 296 294 292 291 290 290 289 289 289 289 289 289 289 290 290 290 290 291 291 290 289 288 287 286 285 284 283 282 281 280 278 277 276 274 273 272 271 270 269 268 266 264 262 260 258 256 254 253
301 304 305 304 304 304 305 306 305 305 304 304 304 305 304 304 303 302 301 299 297 295 293 291 290 289 289 289 290 290 290 290 290 290 290 291 291 292 292 292 290 289 288 286 285 284 283 282 281 280 278 277 276 275 274 273 272 271 270 268 267 266 264 262 260 258 256 253 252
304 306 306 305 305 305 305 305 305 304 304 305 305 305 304 304 303 302 300 298 296 295 293 292 291 291 291 292 292 292 292 292 292 293 293 294 293 293 293 292 290 288 286 285 283 283 282 281 281 279 278 276 274 273 272 271 270 270 269 268 267 266 265 263 261 259 256 254 252
306 306 306 305 305 306 306 306 305 305 305 305 305 304 304 303 303 301 300 299 297 296 294 293 293 294 294 294 294 293 293 294 295 296 297 296 295 294 292 291 289 287 286 284 284 284 284 283 282 281 278 275 272 271 269 269 268 268 268 267 267 267 268 267 265 263 260 257 254
307 307 306 306 306 306 306 306 305 305 305 304 304 304 303 303 302 301 300 299 297 297 297 297 297 298 297 296 296 296 296 297 298 298 298 296 295 294 292 291 289 288 286 285 286 287 287 286 285 284 281 277 274 272 270 269 269 269 268 268 268 269 270 270 270 268 266 264 260
307 307 307 307 306 306 306 306 305 305 305 305 304 304 304 303 302 301 300 299 299 299 300 300 300 300 299 297 298 299 300 301 300 299 297 295 294 293 292 291 289 288 287 287 288 289 289 289 288 288 286 282 278 276 274 274 273 273 272 271 270 269 269 270 270 270 270 270 269
307 307 307 307 306 306 306 306 306 306 306 306 305 305 304 302 301 300 300 300 302 303 303 303 302 300 299 299 301 302 302 301 299 298 295 294 293 292 292 291 291 290 289 290 291 291 291 291 291 291 290 288 284 282 280 280 277 276 274 272 271 270 271 272 272 273 275 276 276
308 308 308 307 306 306 307 307 307 307 307 307 305 304 303 302 302 302 303 304 305 305 305 303 302 301 301 302 302 302 301 299 298 297 296 295 294 293 293 292 292 292 292 292 293 293 293 293 293 292 292 292 290 289 286 283 278 276 275 274 272 274 277 280 282 282 282 281 281
309 309 308 307 307 307 307 308 308 308 308 306 306 305 304 304 304 305 306 307 307 306 304 303 302 302 302 302 302 301 300 299 298 298 297 296 295 294 294 294 294 293 293 293 293 293 293 294 294 294 294 295 294 292 288 283 279 278 277 274 274 277 281 283 283 283 282 282 285
309 309 308 308 307 307 308 308 309 308 308 307 306 306 306 306 307 307 308 307 306 304 303 302 302 302 302 301 300 299 299 299 299 298 297 296 295 295 295 295 294 293 293 294 294 294 294 295 296 296 296 297 296 294 290 285 282 280 279 277 279 282 284 284 284 284 285 286 288
309 309 309 308 308 308 308 309 309 309 308 308 307 307 307 307 308 308 308 306 305 304 304 304 304 304 303 302 301 300 300 300 299 298 297 297 296 296 296 296 295 294 294 294 295 295 296 297 298 298 298 298 298 296 292 288 287 285 284 284 285 287 287 287 286 286 287 287 287
310 310 309 309 308 309 309 309 309 309 308 308 308 308 308 308 308 308 307 305 305 305 305 305 305 304 303 303 302 302 301 300 299 299 298 298 298 297 297 296 295 294 295 296 296 297 298 299 299 299 299 300 299 297 294 292 291 290 289 290 290 289 289 288 287 287 287 285 282
312 311 310 309 309 309 309 309 309 309 309 308 308 308 309 309 308 307 307 306 306 306 305 304 303 302 302 301 301 302 301 301 300 300 299 299 299 298 297 296 295 295 296 297 298 298 299 300 300 300 300 300 300 298 296 295 292 291 291 291 291 291 291 290 289 288 286 283 280
314 313 311 310 309 309 309 310 310 309 309 308 309 309 309 309 308 307 307 308 307 306 304 302 301 301 301 301 302 302 302 301 300 300 299 298 298 297 296 296 295 296 297 298 299 300 300 301 301 300 301 302 301 298 296 295 293 292 293 294 295 295 294 292 290 287 284 281 280
315 313 312 310 310 310 310 310 310 310 309 309 309 309 309 309 308 308 308 308 307 305 303 302 302 302 302 304 303 303 302 301 300 299 298 298 297 297 297 297 296 297 298 299 300 301 301 302 302 302 303 304 302 299 297 296 295 296 297 299 299 297 295 291 287 283 280 279 279
315 313 312 310 310 309 310 310 310 309 309 309 309 309 309 309 308 308 308 307 306 304 303 303 303 304 304 305 304 303 301 300 299 299 298 298 298 297 297 297 298 298 299 299 301 302 303 304 304 304 305 306 305 303 302 301 300 301 301 301 298 294 291 286 283 280 279 279 279
314 312 311 309 309 309 309 309 309 308 308 308 308 309 310 310 308 308 307 307 305 304 304 304 304 304 304 304 302 301 301 300 299 299 298 298 298 298 298 298 298 298 299 300 302 303 305 305 306 307 308 308 308 307 306 305 304 303 302 299 294 289 286 282 281 282 283 283 284
312 311 310 309 308 308 308 307 307 307 307 308 309 310 311 310 308 307 306 306 305 304 304 304 304 304 303 303 302 301 301 301 300 299 299 298 298 298 298 298 298 299 300 302 303 304 305 307 307 309 310 310 311 310 308 306 304 302 299 294 290 287 285 284 285 287 289 289 287
311 310 310 308 308 307 306 306 306 306 307 309 311 311 311 310 307 306 305 304 304 303 303 302 302 302 302 302 302 302 301 301 300 300 299 299 298 299 299 299 299 300 301 302 303 304 306 308 309 310 311 311 312 310 307 304 301 299 296 291 290 289 290 291 293 294 292 290 286
311 310 310 308 307 306 305 305 306 307 309 311 312 312 310 308 306 305 304 303 303 303 302 300 300 301 302 302 302 302 301 301 300 300 300 300 300 300 300 299 299 300 301 301 304 306 308 310 310 311 312 311 311 308 306 304 300 297 295 294 294 295 297 298 299 296 291 286 283